Back to catalog

THORAD AGENA D DEB

AlivePO
NORAD 4739·DEBRIS·🇺🇸 United States

Launched Apr 8, 1970 from Vandenberg Space Force Base

Loading…

Next Passes (next 24 hours)

TLE

FreshSource: Space-Track

Epoch: Sep 14, 2026, 10:32 UTC

1 04739U 70025CN  26257.43934872  .00000823  00000-0  60904-3 0  9994
2 04739  99.9392 134.2209 0000390  43.9181 132.0934 13.98661896826640

Track THORAD AGENA D DEB in real time with AllMySat

Download on the App Store